Hourly Data Report for March 19, 2018

MIRAMICHI RCS
NEW BRUNSWICK

47°00'34.000" N
65°27'54.000" W
33.00 m
8100989
71744
ACQ

Download Data

Hourly Data (March 2018)
Hourly Data Report for March 19, 2018
TIME
LST
Temp Definition
°C
Dew Point Definition
°C
Rel Hum Definition
%
Precip. Amount Definition
mm

Wind Dir Definition
10's deg

Wind Spd Definition
km/h
Visibility Definition
km
Stn Press Definition
kPa
Hmdx Definition


Wind Chill Definition


Weather Definition


00:00 -9.7 -17.2 54 0.0 30 13   99.53   -16 LegendNANA
01:00 -9.7 -17.2 54 0.0 29 12   99.52   -16 LegendNANA
02:00 -10.0 -17.1 56 0.0 29 15   99.50   -17 LegendNANA
03:00 -10.9 -17.3 59 0.0 28 14   99.45   -18 LegendNANA
04:00 -11.4 -17.3 62 0.0 28 11   99.41   -17 LegendNANA
05:00 -12.7 -17.9 65 0.0 27 10   99.39   -18 LegendNANA
06:00 -13.8 -18.4 68 0.0 25 10   99.39   -20 LegendNANA
07:00 -12.9 -18.1 65 0.0 27 11   99.38   -19 LegendNANA
08:00 -11.3 -17.8 59 0.0 29 17   99.38   -19 LegendNANA
09:00 -9.9 -17.1 56 0.0 29 22   99.36   -18 LegendNANA
10:00 -8.2 -15.9 54 0.0 28 20   99.35   -16 LegendNANA
11:00 -6.4 -14.4 53 0.0 30 15   99.33   -12 LegendNANA
12:00 -4.9 -14.1 49 0.0 27 21   99.31   -12 LegendNANA
13:00 -4.2 -13.1 50 0.0 28 19   99.29   -10 LegendNANA
14:00 -3.0 -12.6 48 0.0 27 21   99.24   -9 LegendNANA
15:00 -3.1 -12.1 50 0.0 30 24   99.26   -10 LegendNANA
16:00 -3.2 -12.0 50 0.0 29 23   99.27   -10 LegendNANA
17:00 -3.4 -11.6 53 0.0 29 20   99.30   -10 LegendNANA
18:00 -3.8 -11.7 54 0.0 30 20   99.40   -10 LegendNANA
19:00 -4.0 -11.4 56 0.0 30 13   99.51   -9 LegendNANA
20:00 -4.2 -10.3 63 0.0 29 22   99.56   -11 LegendNANA
21:00 -4.5 -10.4 63 0.0 28 19   99.60   -11 LegendNANA
22:00 -4.9 -10.3 66 0.0 29 17   99.62   -11 LegendNANA
23:00 -5.2 -10.6 66 0.0 28 17   99.65   -11 LegendNANA

Notes on Data Quality.

Legend

  • E = Estimated
  • M = Missing
  • NA = Not Available*
  • [empty] = Indicates an unobserved value
Date modified: